WEINA 1B (43279 NORAD) Tracking and Keplerian Element Data

This shows tracking and keplerian element data for the satellite.

Feedback or suggestion? Click here.




ElementValue
Catalog43279
NameWEINA 1B
Epoch Orbit37813
Epoch Day354.24221134
Epoch Year2025
RAAN192.1848
Inclination63.3941
Eccentricity0.0259257
Argument of Perigee7.326
Mean Anonmoly353.144
Mean Motion13.45353899
Decay Rate-1.82E-06
L11 43279U 18034E 25354.24221134 -.00000182 00000+0 -12629-3 0 9994
L22 43279 63.3941 192.1848 0259257 7.3260 353.1440 13.45353899378136



Live tracking and technical data element details for WEINA 1B (NORAD 43279). WEINA 1B can be tracked NOW for your location showing map with azimuth and elevation plus other details from your city location.







IsCatalogInMostPopularTable: catalog: 43279, numindb: 396
Update: records affected: 1



GetName: 43279 WEINA 1B

Hit Count: updated at: Tue, 20 Jan 2026 19:09:06 GMT